Jamestown, NY

9:05 AM EDT on August 20, 2017 (GMT -0400)
Chautauqua County-Jamestown

Weather History for KJHW - October, 2011

Change the Weather History Date:

Thursday, October 20, 2011

  Actual Average Record
Temperature  
Mean Temperature 47 °F -  
Max Temperature 55 °F 55 °F 75 °F (1961)
Min Temperature 39 °F 32 °F 21 °F (1974)
Degree Days  
Heating Degree Days 18    
Moisture  
Dew Point 41 °F    
Average Humidity 84    
Maximum Humidity 94    
Minimum Humidity 71    
Precipitation  
Precipitation 0.00 in - - ()
Sea Level Pressure  
Sea Level Pressure 29.28 in    
Wind  
Wind Speed 12 mph (SSW)    
Max Wind Speed 20 mph    
Max Gust Speed 29 mph    
Visibility 9 miles    
Events Thunderstorm    
Averages and records for this station are not official NWS values.
T = Trace of Precipitation, MM = Missing Value Source: NWS Daily Summary

Daily Weather History Graph

Daily Weather History Graph

Search for Another Location

Airport or City:

Trip Planner

Search our weather history database for the weather conditions in past years. The results will help you decide how hot, cold, wet, or windy it might be!

Date:

Astronomy

Oct. 20, 2011 Rise Set
Actual Time 7:35 AM EDT 6:27 PM EDT
Civil Twilight 7:06 AM EDT 6:56 PM EDT
Nautical Twilight 6:34 AM EDT 7:28 PM EDT
Astronomical Twilight 6:01 AM EDT 8:01 PM EDT
Moon 12:10 AM EDT 2:42 PM EDT
Length of Visible Light 11h 49m
Length of Day
10h 52m
Last Quarter, 44% of the Moon is Illuminated
Oct 20
Last Quarter
Oct 26
New
Nov 2
First Quarter
Nov 10
Full
Nov 18
Last Quarter

Hourly Weather History & Observations

Time (EDT) Temp. Windchill Dew Point Humidity Pressure Visibility Wind Dir Wind Speed Gust Speed Precip Events Conditions
12:15 AM 55.4 °F - 53.6 °F 94% 29.21 in 10.0 mi East 12.7 mph 17.3 mph N/A   Overcast
12:35 AM 55.4 °F - 53.6 °F 94% 29.21 in 10.0 mi East 9.2 mph 17.3 mph N/A   Overcast
12:55 AM 55.4 °F - 53.6 °F 94% 29.23 in 5.0 mi SSE 3.5 mph - N/A   Overcast
1:15 AM 55.4 °F - 53.6 °F 94% 29.23 in 3.0 mi SSE 5.8 mph - N/A   Overcast
1:35 AM 55.4 °F - 53.6 °F 94% 29.22 in 3.0 mi South 8.1 mph - N/A   Overcast
1:55 AM 55.4 °F - 53.6 °F 94% 29.22 in 5.0 mi SSW 18.4 mph 26.5 mph N/A   Overcast
2:15 AM 53.6 °F - 48.2 °F 82% 29.23 in 10.0 mi SW 12.7 mph - N/A   Overcast
2:35 AM 53.6 °F - 48.2 °F 82% 29.21 in 10.0 mi SW 9.2 mph - N/A   Overcast
2:55 AM 51.8 °F - 48.2 °F 88% 29.20 in 10.0 mi WSW 8.1 mph - N/A   Mostly Cloudy
3:15 AM 51.8 °F - 48.2 °F 88% 29.19 in 10.0 mi WSW 8.1 mph - N/A Thunderstorm Mostly Cloudy
3:35 AM 51.8 °F - 48.2 °F 88% 29.25 in 8.0 mi South 10.4 mph - N/A   Overcast
3:55 AM 50.0 °F - 48.2 °F 94% 29.22 in 8.0 mi SSW 4.6 mph - N/A   Overcast
4:15 AM 50.0 °F - 46.4 °F 87% 29.21 in 10.0 mi WSW 8.1 mph - N/A   Overcast
4:35 AM 50.0 °F - 46.4 °F 87% 29.22 in 10.0 mi SW 5.8 mph - N/A   Overcast
4:55 AM 48.2 °F - 46.4 °F 93% 29.22 in 7.0 mi SW 5.8 mph - N/A   Overcast
5:15 AM 48.2 °F - 44.6 °F 87% 29.23 in 3.0 mi SW 13.8 mph 27.6 mph N/A   Overcast
5:35 AM 48.2 °F - 44.6 °F 87% 29.24 in 10.0 mi SSW 11.5 mph 18.4 mph N/A   Overcast
5:55 AM 46.4 °F 40.1 °F 44.6 °F 93% 29.24 in 10.0 mi SW 15.0 mph 20.7 mph N/A   Overcast
6:15 AM 46.4 °F 40.4 °F 42.8 °F 87% 29.24 in 10.0 mi SSW 13.8 mph 23.0 mph N/A   Overcast
6:35 AM 44.6 °F 38.8 °F 42.8 °F 93% 29.25 in 10.0 mi SSW 11.5 mph 19.6 mph N/A   Overcast
6:55 AM 44.6 °F 39.2 °F 41.0 °F 87% 29.25 in 10.0 mi South 10.4 mph - N/A   Overcast
7:15 AM 44.6 °F 38.4 °F 41.0 °F 87% 29.25 in 10.0 mi SSW 12.7 mph 21.9 mph N/A   Overcast
7:35 AM 44.6 °F 38.4 °F 39.2 °F 81% 29.24 in 10.0 mi South 12.7 mph - N/A   Overcast
7:55 AM 44.6 °F 39.2 °F 39.2 °F 81% 29.25 in 10.0 mi South 10.4 mph 19.6 mph N/A   Overcast
8:15 AM 44.6 °F 38.8 °F 39.2 °F 81% 29.25 in 10.0 mi South 11.5 mph - N/A   Overcast
8:35 AM 44.6 °F 37.4 °F 39.2 °F 81% 29.26 in 10.0 mi South 16.1 mph 19.6 mph N/A   Overcast
8:55 AM 44.6 °F 37.8 °F 39.2 °F 81% 29.26 in 10.0 mi South 15.0 mph 24.2 mph N/A   Overcast
9:15 AM 44.6 °F 37.4 °F 39.2 °F 81% 29.26 in 10.0 mi South 16.1 mph 20.7 mph N/A   Overcast
9:35 AM 44.6 °F 38.8 °F 39.2 °F 81% 29.27 in 10.0 mi SSW 11.5 mph 20.7 mph N/A   Overcast
9:55 AM 44.6 °F 38.1 °F 39.2 °F 81% 29.28 in 10.0 mi South 13.8 mph 20.7 mph N/A   Overcast
10:15 AM 44.6 °F 38.8 °F 37.4 °F 76% 29.28 in 10.0 mi SSW 11.5 mph 20.7 mph N/A   Overcast
10:35 AM 42.8 °F 36.2 °F 39.2 °F 87% 29.28 in 10.0 mi South 12.7 mph 23.0 mph N/A   Overcast
10:55 AM 44.6 °F 39.2 °F 37.4 °F 76% 29.29 in 10.0 mi SSW 10.4 mph 24.2 mph N/A   Overcast
11:15 AM 44.6 °F 38.8 °F 37.4 °F 76% 29.29 in 10.0 mi South 11.5 mph 23.0 mph N/A   Overcast
11:35 AM 44.6 °F 37.2 °F 35.6 °F 71% 29.29 in 10.0 mi SSW 17.3 mph 24.2 mph N/A   Overcast
11:55 AM 44.6 °F 39.2 °F 35.6 °F 71% 29.29 in 10.0 mi SSW 10.4 mph 18.4 mph N/A   Overcast
12:15 PM 44.6 °F 38.1 °F 37.4 °F 76% 29.30 in 10.0 mi SSW 13.8 mph 23.0 mph N/A   Overcast
12:35 PM 42.8 °F 35.1 °F 35.6 °F 76% 29.30 in 10.0 mi South 16.1 mph 26.5 mph N/A   Overcast
12:55 PM 42.8 °F 34.3 °F 35.6 °F 76% 29.31 in 10.0 mi South 19.6 mph 27.6 mph N/A   Overcast
1:15 PM 42.8 °F 34.3 °F 35.6 °F 76% 29.31 in 10.0 mi SSW 19.6 mph 24.2 mph N/A   Overcast
1:35 PM 42.8 °F 36.2 °F 35.6 °F 76% 29.31 in 10.0 mi SSW 12.7 mph 21.9 mph N/A   Overcast
1:55 PM 44.6 °F 37.4 °F 35.6 °F 71% 29.31 in 9.0 mi SSW 16.1 mph 25.3 mph N/A   Overcast
2:15 PM 42.8 °F 36.6 °F 35.6 °F 76% 29.32 in 10.0 mi SSW 11.5 mph 23.0 mph N/A   Overcast
2:55 PM 42.8 °F 36.6 °F 37.4 °F 81% 29.33 in 10.0 mi South 11.5 mph 17.3 mph N/A   Overcast
3:15 PM 42.8 °F 35.1 °F 35.6 °F 76% 29.34 in 10.0 mi SSW 16.1 mph 24.2 mph N/A   Overcast
3:35 PM 42.8 °F 35.4 °F 35.6 °F 76% 29.34 in 10.0 mi SSW 15.0 mph 21.9 mph N/A   Overcast
3:55 PM 42.8 °F 34.8 °F 35.6 °F 76% 29.35 in 10.0 mi South 17.3 mph 23.0 mph N/A   Overcast
4:35 PM 41.0 °F 32.2 °F 35.6 °F 81% 29.37 in 10.0 mi SSW 18.4 mph 28.8 mph N/A   Overcast
4:55 PM 41.0 °F 32.5 °F 35.6 °F 81% 29.37 in 10.0 mi South 17.3 mph 20.7 mph N/A   Overcast
5:15 PM 41.0 °F 33.5 °F 35.6 °F 81% 29.38 in 10.0 mi South 13.8 mph 19.6 mph N/A   Overcast
5:35 PM 39.2 °F 32.5 °F 35.6 °F 87% 29.39 in 10.0 mi South 10.4 mph 19.6 mph N/A   Overcast
5:55 PM 39.2 °F 31.6 °F 37.4 °F 93% 29.40 in 10.0 mi South 12.7 mph 18.4 mph N/A   Overcast
6:35 PM 39.2 °F 30.8 °F 37.4 °F 93% 29.41 in 5.0 mi South 15.0 mph 19.6 mph N/A   Overcast
6:55 PM 39.2 °F 31.2 °F 37.4 °F 93% 29.42 in 5.0 mi South 13.8 mph 20.7 mph N/A   Overcast
7:15 PM 39.2 °F 31.2 °F 37.4 °F 93% 29.43 in 5.0 mi SSW 13.8 mph 18.4 mph N/A   Overcast
7:35 PM 39.2 °F 30.5 °F 37.4 °F 93% 29.44 in 10.0 mi SSW 16.1 mph 25.3 mph N/A   Overcast
7:55 PM 41.0 °F 32.8 °F 37.4 °F 87% 29.44 in 10.0 mi SSW 16.1 mph 23.0 mph N/A   Overcast
8:35 PM 41.0 °F 33.5 °F 37.4 °F 87% 29.46 in 10.0 mi SSW 13.8 mph 23.0 mph N/A   Overcast
8:55 PM 41.0 °F 32.2 °F 37.4 °F 87% 29.47 in 10.0 mi SW 18.4 mph 26.5 mph N/A   Overcast
9:15 PM 41.0 °F 33.1 °F 37.4 °F 87% 29.48 in 10.0 mi SW 15.0 mph 23.0 mph N/A   Overcast
9:35 PM 41.0 °F 33.1 °F 37.4 °F 87% 29.49 in 10.0 mi SW 15.0 mph 25.3 mph N/A   Overcast
9:55 PM 41.0 °F 33.9 °F 37.4 °F 87% 29.50 in 10.0 mi SSW 12.7 mph 28.8 mph N/A   Overcast
10:35 PM 41.0 °F 33.5 °F 37.4 °F 87% 29.52 in 9.0 mi SSW 13.8 mph 21.9 mph N/A   Overcast
10:55 PM 41.0 °F 33.9 °F 37.4 °F 87% 29.53 in 9.0 mi SW 12.7 mph 23.0 mph N/A   Overcast
11:15 PM 41.0 °F 33.9 °F 37.4 °F 87% 29.54 in 8.0 mi SW 12.7 mph 19.6 mph N/A   Overcast
11:35 PM 41.0 °F 33.1 °F 37.4 °F 87% 29.55 in 7.0 mi SW 15.0 mph 24.2 mph N/A   Overcast
11:55 PM 41.0 °F 33.5 °F 37.4 °F 87% 29.56 in 6.0 mi SW 13.8 mph 20.7 mph N/A   Overcast